Погода в Золоткове

Россия / Владимирская область     55°31′48″N   41°06′07″E
темп.,
°C
ветер,
м/с
пор.,
м/с
влажн.,
%
обл.,
%
осадки,
мм/ч
давл.,
гПа
погр.,
м
25 июля, вс
вс2500:00+15всв0155100 0.0 101711
03:00+14з1163100 0.0 101816
06:00+14з1168100 0.0 102043
09:00+19з12453 0.0 1020783
12:00+21сз3432100 0.0 10202878
15:00+22зюз243088 0.0 10202470
18:00+22з243935 0.0 10211517
21:00+17зюз22555 0.0 102123
26 июля, пн
пн2600:00+16з115761 0.0 102213
03:00+13юз126899 0.0 102311
06:00+16юз2262100 0.0 102356
09:00+20юз235288 0.0 1023306
12:00+22з334370 0.0 10231021
15:00+24сз443798 0.0 10221725
18:00+23зсз24405 0.0 10221284
21:00+17зюз226292 0.0 102216
27 июля, вт
вт2700:00+18зюз2456100 0.0 102293
03:00+17зюз26585 0.0 1022128
06:00+16з23735 0.0 102296
09:00+23ссз23474 0.0 1021621
12:00+27сз233251 0.0 10202607
15:00+26сз244035 0.0 10191018
18:00+24зсз234862 0.0 1018273
21:00+19ююв226044 0.0 101824
28 июля, ср
ср2800:00+16св117419 0.0 101911
03:00+16ююз237330 0.0 101849
06:00+17з11723 0.0 101759
09:00+24з23490 0.0 1016615
12:00+28зюз343779 0.0 10152123
15:00+26зюз3645100 0.0 1013631
18:00+20в1176100 1.1 101212
21:00+17зюз3995100 5.3 1012275
29 июля, чт
чт2900:00+17вюв2695100 1.6 1010200
03:00+17юв31096100 3.7 1008444
06:00+16ююв3797100 2.9 1006393
09:00+18юз2597100 3.1 1005379
12:00+20з4890100 0.6 1005738
15:00+19з51193100 1.1 1005677
18:00+21зсз411810 0.4 10051117
21:00+17зсз23960 0.6 100647